Torna al catalogo

LUNA-1

AttivoScienzaSSO
NORAD 66777·PAYLOAD·🇹🇷 Turkey

Lanciato Nov 28, 2025 da Vandenberg Space Force Base

Loading…

Prossimi Passaggi (prossime 24 ore)

TLE

AggiornatoSource: Space-Track

Epoca: Sep 14, 2026, 12:20 UTC

1 66777U 25276DR  26257.51449127  .00007446  00000-0  30895-3 0  9999
2 66777  97.4183 330.8857 0000334 250.8404 109.2797 15.24147773 44064

Traccia LUNA-1 in tempo reale con AllMySat

Download on the App Store